Regional Weather Roundup
Issued by NWS

Home | Current Version | Previous Version | Graphics & Text | Print | Product List | Glossary On
Versions: 1 2 3 4 5 6 7 8 9 10 11 12 13 14 15 16 17 18 19 20 21 22 23 24 25 26 27 28 29 30 31 32 33 34 35 36 37 38 39 40 41 42 43 44 45 46 47 48 49 50
000
ASUS43 KLOT 291808
RWRIL

ILLINOIS REGIONAL WEATHER ROUNDUP
NATIONAL WEATHER SERVICE CHICAGO/ROMEOVILLE IL
100 PM CDT MON JUN 29 2015

NOTE: "FAIR" INDICATES FEW OR NO CLOUDS BELOW 12,000 FEET WITH NO
SIGNIFICANT WEATHER AND/OR OBSTRUCTIONS TO VISIBILITY.

* THESE STATIONS ARE NOT UNDER NWS QUALITY CONTROL. THEY ALSO MAY NOT
  REPORT WEATHER SUCH AS PRECIPITATION OR FOG.

ILZ001-002-007-009-015-016-024-291900-
NORTHWEST ILLINOIS

CITY           SKY/WX    TMP DP  RH WIND       PRES   REMARKS
MOLINE         PTSUNNY   72  65  78 W10       29.85F
6HR MIN TEMP:  63; 6HR MAX TEMP:  72;

STERLING*      MOSUNNY   77  66  69 W12       29.83S
SAVANNA*       MOSUNNY   77  63  62 W7        29.83S
$$

ILZ003-004-008-010-011-017-018-291900-
NORTH CENTRAL ILLINOIS

CITY           SKY/WX    TMP DP  RH WIND       PRES   REMARKS
ROCKFORD       PTSUNNY   74  61  63 N5        29.82F
6HR MIN TEMP:  62; 6HR MAX TEMP:  77; 6HR PCP: TRACE;

FREEPORT*      PTSUNNY   73  64  71 SW8       29.84S
ROCHELLE*      MOSUNNY   74  62  66 CALM      29.82F
DE KALB*       CLOUDY    71  62  74 CALM      29.82F
PERU*          PTSUNNY   75  62  62 CALM      29.83S
$$

ILZ005-006-012>014-019>023-291900-
NORTHEAST ILLINOIS

CITY           SKY/WX    TMP DP  RH WIND       PRES   REMARKS
CHICAGO-OHARE  CLOUDY    73  61  65 NE8       29.80F
6HR MIN TEMP:  64; 6HR MAX TEMP:  74; 6HR PCP:  0.12;

CHICAGO-MIDWAY CLOUDY    71  65  81 E7        29.81S
6HR MIN TEMP:  67; 6HR MAX TEMP:  75;

AURORA         PTSUNNY   74  64  71 E6        29.81F
6HR MIN TEMP:  66; 6HR MAX TEMP:  74;

LANSING*       PTSUNNY   72  61  69 CALM      29.81F
JOLIET*        PTSUNNY   74  65  74 CALM      29.81S
WAUKEGAN       LGT RAIN  67  63  87 VRB3      29.82S
6HR MIN TEMP:  61; 6HR MAX TEMP:  70; 6HR PCP: TRACE;

DUPAGE AIRPORT CLOUDY    73  62  68 NE5       29.81S
6HR MIN TEMP:  65; 6HR MAX TEMP:  74;

KANKAKEE*      CLOUDY    73  66  78 CALM      29.82S
WHEELING       MOSUNNY   73  61  65 VRB6      29.82F
6HR MIN TEMP:  63; 6HR MAX TEMP:  74; 6HR PCP:  0.08;

MORRIS*        CLOUDY    74  64  70 NW10      29.80S
ROMEOVILLE*    CLOUDY    70  63  79 E13       29.81S
NORTHERLY ISL    N/A     65  62  90 E6          N/A
$$

LMZ740>746-291900-
SOUTHERN LAKE MICHIGAN

STATION/POSITION SKY/WX   TEMP    WIND        PRES    VSBY  WAVE
                          AIR SEA DIR/SP/G                  HT/PER
                          (F)     (DEG/KT/KT) (MB)    (MI)  (FT/S)
HARRISON CRIB              63     100/  7/  8   N/A
BURNHAM HARBOR             66      80/  4/  6   N/A
CALUMET HARBOR             65      50/  5/  6   N/A
MICHIGAN CITY              66     100/  6/  7   N/A
MICHIGAN CITY 6N           67 65  160/  2/  2   N/A           0
ST. JOSEPH                 65 64                N/A           0
$$

ILZ025>027-034>036-040-047-049-050-058-095>099-291900-
WEST-CENTRAL ILLINOIS

CITY           SKY/WX    TMP DP  RH WIND       PRES   REMARKS
QUINCY         MOSUNNY   76  65  68 VRB5      29.88F
GALESBURG*     PTSUNNY   74  65  72 W10       29.86F
MACOMB*        MOSUNNY   74  65  72 W5        29.89S
JACKSONVILLE*  MOSUNNY   77  66  68 W8        29.87S
PITTSFIELD*    MOSUNNY   76  64  66 NW7       29.89F
$$

ILZ028>032-037-038-041>044-048-051>054-059>061-291900-
CENTRAL ILLINOIS

CITY           SKY/WX    TMP DP  RH WIND       PRES   REMARKS
PONTIAC        CLOUDY    74  66  74 W5        29.83S
BLOOMINGTON    PTSUNNY   78  64  61 NW12      29.85R HX  80
DECATUR        MOSUNNY   77  64  64 NW14      29.84S
PEORIA         MOSUNNY   78  63  59 W8        29.85R HX  80
6HR MIN TEMP:  68; 6HR MAX TEMP:  79;

LACON*         PTSUNNY   74  62  64 NW5       29.83S
LINCOLN*       PTSUNNY   78  64  63 NW7       29.85S
SPRINGFIELD    MOSUNNY   77  64  64 NW10      29.86S
6HR MIN TEMP:  67; 6HR MAX TEMP:  78;

TAYLORVILLE    PTSUNNY   73  64  73 NW8       29.85S
$$

ILZ033-039-045-046-055>057-062-063-291900-
EAST-CENTRAL ILLINOIS

CITY           SKY/WX    TMP DP  RH WIND       PRES   REMARKS
CHAMPAIGN      MOSUNNY   76  66  71 NW12      29.82S
DANVILLE*      RAIN      72  66  82 CALM      29.80S
RANTOUL*       MOSUNNY   76  67  72 NW12      29.82S
MATTOON        CLOUDY    73  65  75 NW9       29.83R
PARIS*         CLOUDY    74  68  79 W13       29.82S
$$

ILZ079-100>102-291900-
SOUTHWEST ILLINOIS

CITY           SKY/WX    TMP DP  RH WIND       PRES   REMARKS
ALTON          PTSUNNY   75  70  83 NW14      29.88S
BELLEVILLE     MOSUNNY   78  67  69 VRB7      29.87R HX  80
CAHOKIA*       MOSUNNY   81  64  56 NW13      29.87S HX  82
SPARTA*        MOSUNNY   81  66  61 NW9       29.88S HX  83
$$

ILZ064>066-069>071-074>076-080>082-084>086-088>090-092>094-291900-
SOUTH-CENTRAL ILLINOIS

CITY           SKY/WX    TMP DP  RH WIND       PRES   REMARKS
CARBONDALE     MOSUNNY   82  66  58 NW10      29.86S HX  84
6HR MIN TEMP:  73; 6HR MAX TEMP:  83;

CAIRO*         SUNNY     84  69  59 W5        29.86S HX  87
EFFINGHAM*     CLOUDY    74  64  70 W9        29.87R
MARION         PTSUNNY   82  68  61 NW8       29.87S HX  85
MT. VERNON     PTSUNNY   79  64  61 NW6       29.87R HX  81
CENTRALIA*     MOSUNNY   77  63  63 W7        29.88R
SALEM*         PTSUNNY   77  64  64 W6        29.87S
METROPOLIS*    SUNNY     84  70  62 SW8       29.86F HX  89
$$

ILZ067-068-072-073-078-083-087-091-291900-
SOUTHEAST ILLINOIS

CITY           SKY/WX    TMP DP  RH WIND       PRES   REMARKS
LAWRENCEVILLE  CLOUDY    76  66  71 NW15      29.84R
FLORA*         MOSUNNY   75  64  68 NW8       29.86S
FAIRFIELD*     MOSUNNY   77  67  69 NW9G17    29.84S
HARRISBURG*    MOSUNNY   82  68  63 W10       29.86S HX  84
ROBINSON*      CLOUDY    74  65  73 W14       29.84S
CARMI*         MOSUNNY   81  63  55 W9        29.84S HX  82
$$

ABBREVIATIONS USED IN REMARKS
   TC - TEMPERATURE IN CELSIUS
  WCI - WIND CHILL INDEX
   HX - HEAT INDEX
  VSB - VISIBILITY
$$



USA.gov is the U.S. government's official web portal to all federal, state and local government web resources and services.